| time (UTC) | temp C | wind direction | speed KPH | gust KPH | rain 1hr cm | rain 24hr cm | rain mn cm | humidity % | barometer mb |
| 20260906163314 | 35 | 348 | 3.2 | 6.4 | 0.00 | 0.00 | 0.00 | 49 | 1016.9 |
| 20260906160345 | 34 | 136 | 6.4 | 12.9 | 0.00 | 0.00 | 0.00 | 50 | 1017.0 |
| 20260906153330 | 33 | 164 | 1.6 | 9.7 | 0.00 | 0.00 | 0.00 | 54 | 1016.8 |
| 20260906150316 | 32 | 355 | 1.6 | 4.8 | 0.00 | 0.00 | 0.00 | 54 | 1016.8 |
| 20260906143326 | 31 | 164 | 1.6 | 4.8 | 0.00 | 0.00 | 0.00 | 59 | 1016.7 |
| 20260906140329 | 30 | 90 | 0.0 | 0.0 | 0.00 | 0.00 | 0.00 | 63 | 1016.6 |
| 20260906133317 | 26 | 90 | 0.0 | 0.0 | 0.00 | 0.00 | 0.00 | 79 | 1016.6 |
| 20260906130330 | 22 | 90 | 0.0 | 0.0 | 0.00 | 0.00 | 0.00 | 88 | 1016.5 |
| 20260906123314 | 21 | 90 | 0.0 | 0.0 | 0.00 | 0.00 | 0.00 | 90 | 1015.9 |
| 20260906120318 | 21 | 90 | 0.0 | 0.0 | 0.00 | 0.00 | 0.00 | 90 | 1015.5 |
| 20260906113328 | 21 | 90 | 0.0 | 0.0 | 0.00 | 0.00 | 0.00 | 88 | 1015.2 |
| 20260906110313 | 21 | 90 | 0.0 | 0.0 | 0.00 | 0.00 | 0.00 | 88 | 1015.1 |
| 20260906103322 | 21 | 90 | 0.0 | 0.0 | 0.00 | 0.00 | 0.00 | 87 | 1015.1 |
| 20260906100337 | 21 | 90 | 0.0 | 0.0 | 0.00 | 0.00 | 0.00 | 87 | 1015.0 |
| 20260906093340 | 21 | 90 | 0.0 | 0.0 | 0.00 | 0.00 | 0.00 | 88 | 1014.8 |
| 20260906090331 | 22 | 90 | 0.0 | 0.0 | 0.00 | 0.00 | 0.00 | 88 | 1014.6 |
| 20260906083319 | 22 | 90 | 0.0 | 0.0 | 0.00 | 0.00 | 0.00 | 87 | 1014.7 |
| 20260906080321 | 23 | 90 | 0.0 | 0.0 | 0.00 | 0.00 | 0.00 | 86 | 1014.7 |
| 20260906073321 | 23 | 90 | 0.0 | 0.0 | 0.00 | 0.00 | 0.00 | 84 | 1014.7 |
| 20260906070323 | 23 | 90 | 0.0 | 0.0 | 0.00 | 0.00 | 0.00 | 82 | 1014.8 |
| 20260906063314 | 24 | 90 | 0.0 | 0.0 | 0.00 | 0.00 | 0.00 | 80 | 1015.0 |
| 20260906060317 | 25 | 90 | 0.0 | 0.0 | 0.00 | 0.00 | 0.00 | 79 | 1014.9 |
| 20260906053317 | 25 | 90 | 0.0 | 0.0 | 0.00 | 0.00 | 0.00 | 76 | 1015.0 |
| 20260906050350 | 26 | 90 | 0.0 | 0.0 | 0.00 | 0.00 | 0.00 | 73 | 1015.0 |
| 20260906043314 | 26 | 90 | 0.0 | 0.0 | 0.00 | 0.00 | 0.00 | 67 | 1015.0 |
| 20260906040317 | 26 | 117 | 0.0 | 0.0 | 0.00 | 0.00 | 0.00 | 69 | 1015.0 |
| 20260906033328 | 26 | 117 | 0.0 | 0.0 | 0.00 | 0.00 | 0.00 | 71 | 1015.0 |
| 20260906030312 | 27 | 117 | 0.0 | 0.0 | 0.00 | 0.00 | 0.00 | 68 | 1014.9 |
| 20260906023313 | 27 | 117 | 0.0 | 0.0 | 0.00 | 0.00 | 0.00 | 66 | 1014.7 |
| 20260906020327 | 28 | 117 | 0.0 | 0.0 | 0.00 | 0.00 | 0.00 | 61 | 1014.1 |
| 20260906013317 | 30 | 73 | 0.0 | 1.6 | 0.00 | 0.00 | 0.00 | 57 | 1013.8 |
| 20260906010321 | 31 | 34 | 3.2 | 6.4 | 0.00 | 0.00 | 0.00 | 54 | 1013.8 |
| 20260906003323 | 32 | 69 | 1.6 | 9.7 | 0.00 | 0.00 | 0.00 | 53 | 1013.8 |
| 20260906000336 | 35 | 56 | 1.6 | 8.0 | 0.00 | 0.00 | 0.00 | 45 | 1013.5 |
| 20260905233322 | 37 | 311 | 1.6 | 3.2 | 0.00 | 0.00 | 0.00 | 39 | 1013.3 |
| 20260905230312 | 37 | 330 | 3.2 | 6.4 | 0.00 | 0.00 | 0.00 | 39 | 1013.2 |
| 20260905223321 | 38 | 296 | 1.6 | 6.4 | 0.00 | 0.00 | 0.00 | 35 | 1013.0 |
| 20260905220325 | 38 | 308 | 0.0 | 4.8 | 0.00 | 0.00 | 0.00 | 38 | 1013.3 |
| 20260905213311 | 38 | 29 | 3.2 | 8.0 | 0.00 | 0.00 | 0.00 | 39 | 1013.5 |
| 20260905210346 | 37 | 114 | 1.6 | 6.4 | 0.00 | 0.00 | 0.00 | 37 | 1013.9 |
| 20260905203329 | 37 | 245 | 3.2 | 11.3 | 0.00 | 0.00 | 0.00 | 39 | 1014.2 |
| 20260905200319 | 37 | 298 | 4.8 | 14.5 | 0.00 | 0.00 | 0.00 | 39 | 1014.7 |
| 20260905193332 | 37 | 266 | 3.2 | 8.0 | 0.00 | 0.00 | 0.00 | 40 | 1015.0 |
| 20260905190316 | 36 | 198 | 4.8 | 8.0 | 0.00 | 0.00 | 0.00 | 41 | 1015.6 |
| 20260905183321 | 36 | 278 | 4.8 | 11.3 | 0.00 | 0.00 | 0.00 | 44 | 1016.1 |
| 20260905180334 | 35 | 80 | 4.8 | 14.5 | 0.00 | 0.00 | 0.00 | 48 | 1016.4 |
| 20260905173319 | 35 | 311 | 4.8 | 14.5 | 0.00 | 0.00 | 0.00 | 50 | 1016.7 |
| 20260905170338 | 34 | 299 | 4.8 | 9.7 | 0.00 | 0.00 | 0.00 | 49 | 1017.1 |